Zurück zum Katalog

SL-16 DEB

AktivVLEO
NORAD 22571·DEBRIS·🇷🇺 Russia

Gestartet Dec 25, 1992 von Baikonur Cosmodrome

Loading…

Nächste Überflüge (nächste 24 Stunden)

TLE

AktuellSource: Space-Track

Epoche: Sep 13, 2026, 23:13 UTC

1 22571U 92093HT  26256.96795673  .00104415  00000-0  52938-2 0  9997
2 22571  71.3231  95.4435 0022937  48.0618 312.2510 15.16180105718756

Verfolge SL-16 DEB in Echtzeit mit AllMySat

Download on the App Store